Millville, NJ

9:49 AM EDT on June 26, 2017 (GMT -0400)
Millville Municipal

Weather History for KMIV - January, 2013

Change the Weather History Date:

Tuesday, January 29, 2013

  Actual Average Record
Temperature  
Mean Temperature 45 °F -  
Max Temperature 57 °F 41 °F 71 °F (2002)
Min Temperature 33 °F 22 °F -5 °F (1961)
Degree Days  
Heating Degree Days 20    
Moisture  
Dew Point 39 °F    
Average Humidity 88    
Maximum Humidity 100    
Minimum Humidity 67    
Precipitation  
Precipitation 0.00 in - - ()
Sea Level Pressure  
Sea Level Pressure 30.09 in    
Wind  
Wind Speed 1 mph (SSE)    
Max Wind Speed 8 mph    
Max Gust Speed 16 mph    
Visibility 5 miles    
Events      
Averages and records for this station are not official NWS values.
T = Trace of Precipitation, MM = Missing Value Source: NWS Daily Summary

Daily Weather History Graph

Daily Weather History Graph

Search for Another Location

Airport or City:

Trip Planner

Search our weather history database for the weather conditions in past years. The results will help you decide how hot, cold, wet, or windy it might be!

Date:

Astronomy

Jan. 29, 2013 Rise Set
Actual Time 7:09 AM EST 5:17 PM EST
Civil Twilight 6:41 AM EST 5:46 PM EST
Nautical Twilight 6:09 AM EST 6:18 PM EST
Astronomical Twilight 5:37 AM EST 6:49 PM EST
Moon 8:09 PM EST (1/29) 8:06 AM EST (1/29)
Length of Visible Light 11h 04m
Length of Day
10h 07m
Waning Gibbous, 94% of the Moon is Illuminated
Jan 29
Waning Gibbous
Feb 3
Last Quarter
Feb 10
New
Feb 17
First Quarter
Feb 25
Full

Hourly Weather History & Observations

Time (EST) Temp. Windchill Dew Point Humidity Pressure Visibility Wind Dir Wind Speed Gust Speed Precip Events Conditions
12:50 AM 33.8 °F - 32.0 °F 93% 30.04 in 2.5 mi Calm Calm - N/A   Clear
12:54 AM 34.0 °F - 32.0 °F 92% 30.04 in 2.0 mi Calm Calm - N/A   Clear
1:54 AM 34.0 °F - 33.1 °F 96% 30.04 in 3.0 mi Calm Calm - N/A   Scattered Clouds
2:09 AM 33.8 °F - 32.0 °F 93% 30.04 in 2.5 mi Calm Calm - N/A   Clear
2:54 AM 33.1 °F - 32.0 °F 96% 30.06 in 2.0 mi Calm Calm - N/A   Clear
3:06 AM 33.8 °F - 32.0 °F 93% 30.06 in 1.5 mi Calm Calm - N/A   Clear
3:49 AM 33.8 °F - 32.0 °F 93% 30.06 in 2.0 mi Calm Calm - N/A   Overcast
3:54 AM 33.1 °F - 32.0 °F 96% 30.06 in 2.5 mi Calm Calm - N/A   Overcast
4:54 AM 35.1 °F 31.0 °F 34.0 °F 96% 30.07 in 2.5 mi West 4.6 mph - N/A   Overcast
5:54 AM 35.1 °F - 34.0 °F 96% 30.09 in 2.5 mi Calm Calm - N/A   Overcast
6:22 AM 37.4 °F - 37.4 °F 100% 30.08 in 3.0 mi Calm Calm - N/A   Overcast
6:36 AM 37.4 °F - 37.4 °F 100% 30.10 in 2.5 mi Calm Calm - N/A   Overcast
6:54 AM 37.9 °F - 36.0 °F 93% 30.11 in 2.0 mi Calm Calm - N/A   Overcast
7:12 AM 37.4 °F - 37.4 °F 100% 30.11 in 1.2 mi Calm Calm - N/A   Overcast
7:54 AM 37.9 °F - 37.0 °F 97% 30.13 in 1.0 mi Calm Calm - N/A   Overcast
8:54 AM 41.0 °F - 39.0 °F 93% 30.15 in 2.0 mi Calm Calm - N/A   Overcast
9:32 AM 42.8 °F - 39.2 °F 87% 30.14 in 3.0 mi Calm Calm - N/A   Overcast
9:54 AM 44.1 °F - 41.0 °F 89% 30.16 in 4.0 mi Calm Calm - N/A   Overcast
10:54 AM 48.0 °F - 42.1 °F 80% 30.16 in 5.0 mi Calm Calm - N/A   Haze
11:54 AM 51.1 °F - 44.1 °F 77% 30.12 in 6.0 mi Calm Calm - N/A   Haze
12:54 PM 54.0 °F - 45.0 °F 72% 30.11 in 8.0 mi Calm Calm - N/A   Overcast
1:54 PM 54.0 °F - 46.0 °F 75% 30.09 in 8.0 mi ESE 3.5 mph - N/A   Overcast
2:54 PM 57.9 °F - 48.0 °F 70% 30.08 in 10.0 mi SE 6.9 mph - N/A   Overcast
3:54 PM 57.0 °F - 46.0 °F 67% 30.07 in 10.0 mi SSE 8.1 mph 16.1 mph N/A   Clear
4:54 PM 52.0 °F - 45.0 °F 77% 30.08 in 10.0 mi SSE 5.8 mph - N/A   Clear
5:54 PM 48.0 °F - 43.0 °F 83% 30.09 in 9.0 mi SE 6.9 mph - N/A   Clear
6:54 PM 46.9 °F - 42.1 °F 83% 30.09 in 7.0 mi SSE 5.8 mph - N/A   Clear
7:54 PM 46.0 °F 43.1 °F 42.1 °F 86% 30.09 in 6.0 mi SSE 5.8 mph - N/A   Clear
8:54 PM 46.9 °F - 43.0 °F 86% 30.08 in 6.0 mi SSE 4.6 mph - N/A   Clear
9:54 PM 48.0 °F - 43.0 °F 83% 30.07 in 7.0 mi SSE 5.8 mph - N/A   Clear
10:54 PM 48.0 °F - 43.0 °F 83% 30.06 in 7.0 mi SSE 6.9 mph - N/A   Clear
11:54 PM 46.0 °F 43.1 °F 43.0 °F 89% 30.04 in 5.0 mi SSE 5.8 mph - N/A   Clear